Kankakee, IL

10:33 PM CDT on June 23, 2017 (GMT -0500)
Greater Kankakee

Weather History for KIKK - November, 2013

Change the Weather History Date:

Thursday, November 14, 2013

  Actual Average Record
Temperature  
Mean Temperature 39 °F -  
Max Temperature 50 °F 49 °F 74 °F (1989)
Min Temperature 28 °F 30 °F 5 °F (1986)
Degree Days  
Heating Degree Days 26    
Moisture  
Dew Point 25 °F    
Average Humidity 58    
Maximum Humidity 73    
Minimum Humidity 39    
Precipitation  
Precipitation 0.00 in - - ()
Sea Level Pressure  
Sea Level Pressure 30.09 in    
Wind  
Wind Speed 14 mph (SSW)    
Max Wind Speed 25 mph    
Max Gust Speed 31 mph    
Visibility 10 miles    
Events      
Averages and records for this station are not official NWS values.
T = Trace of Precipitation, MM = Missing Value Source: NWS Daily Summary

Daily Weather History Graph

Daily Weather History Graph

Search for Another Location

Airport or City:

Trip Planner

Search our weather history database for the weather conditions in past years. The results will help you decide how hot, cold, wet, or windy it might be!

Date:

Astronomy

Nov. 14, 2013 Rise Set
Actual Time 6:38 AM CST 4:33 PM CST
Civil Twilight 6:08 AM CST 5:02 PM CST
Nautical Twilight 5:35 AM CST 5:35 PM CST
Astronomical Twilight 5:02 AM CST 6:08 PM CST
Moon 2:55 PM CST (11/14) 3:31 AM CST (11/14)
Length of Visible Light 10h 53m
Length of Day
9h 55m
Waxing Gibbous, 92% of the Moon is Illuminated
Nov 14
Waxing Gibbous
Nov 17
Full
Nov 25
Last Quarter
Dec 2
New
Dec 9
First Quarter

Hourly Weather History & Observations

Time (CST) Temp. Windchill Dew Point Humidity Pressure Visibility Wind Dir Wind Speed Gust Speed Precip Events Conditions
12:15 AM 31.5 °F 21.8 °F 21.0 °F 65% 30.22 in 10.0 mi SSW 12.7 mph - N/A   Clear
12:35 AM 30.9 °F 20.7 °F 21.2 °F 67% 30.22 in 10.0 mi SSW 13.8 mph - N/A   Clear
12:55 AM 30.7 °F 20.9 °F 21.2 °F 68% 30.22 in 10.0 mi SSW 12.7 mph 19.6 mph N/A   Clear
1:15 AM 31.1 °F 20.9 °F 21.2 °F 67% 30.21 in 10.0 mi SSW 13.8 mph 20.7 mph N/A   Clear
1:35 AM 30.9 °F 21.7 °F 21.2 °F 67% 30.21 in 10.0 mi SSW 11.5 mph 20.7 mph N/A   Clear
1:55 AM 30.9 °F 21.7 °F 21.2 °F 67% 30.22 in 10.0 mi SSW 11.5 mph - N/A   Clear
2:15 AM 30.9 °F 21.7 °F 21.2 °F 67% 30.22 in 10.0 mi SSW 11.5 mph 17.3 mph N/A   Clear
2:35 AM 30.6 °F 20.7 °F 21.2 °F 68% 30.21 in 10.0 mi South 12.7 mph - N/A   Clear
2:55 AM 30.4 °F 20.0 °F 21.2 °F 69% 30.20 in 10.0 mi South 13.8 mph - N/A   Clear
3:15 AM 30.6 °F 20.7 °F 21.2 °F 68% 30.20 in 10.0 mi SSW 12.7 mph - N/A   Clear
3:35 AM 30.6 °F 20.2 °F 21.0 °F 68% 30.19 in 10.0 mi South 13.8 mph 20.7 mph N/A   Clear
3:55 AM 30.6 °F 20.2 °F 21.0 °F 68% 30.19 in 10.0 mi SSW 13.8 mph 18.4 mph N/A   Clear
4:15 AM 30.0 °F 20.0 °F 21.0 °F 69% 30.18 in 10.0 mi South 12.7 mph 18.4 mph N/A   Clear
4:35 AM 29.1 °F 18.9 °F 21.2 °F 72% 30.17 in 10.0 mi South 12.7 mph - N/A   Clear
4:55 AM 29.1 °F 20.0 °F 21.2 °F 72% 30.17 in 10.0 mi South 10.4 mph - N/A   Clear
5:15 AM 28.9 °F 19.2 °F 21.2 °F 73% 30.17 in 10.0 mi South 11.5 mph - N/A   Clear
5:35 AM 28.9 °F 19.2 °F 21.2 °F 73% 30.16 in 10.0 mi South 11.5 mph - N/A   Clear
5:55 AM 29.1 °F 18.4 °F 21.2 °F 72% 30.15 in 10.0 mi South 13.8 mph - N/A   Clear
6:15 AM 29.3 °F 18.6 °F 21.2 °F 72% 30.14 in 10.0 mi South 13.8 mph 19.6 mph N/A   Clear
6:35 AM 29.3 °F 18.2 °F 21.2 °F 72% 30.15 in 10.0 mi South 15.0 mph 19.6 mph N/A   Clear
6:55 AM 29.7 °F 19.1 °F 21.6 °F 72% 30.14 in 10.0 mi South 13.8 mph 20.7 mph N/A   Clear
7:15 AM 30.6 °F 19.4 °F 21.7 °F 70% 30.14 in 10.0 mi South 16.1 mph 21.9 mph N/A   Clear
7:35 AM 31.6 °F 21.2 °F 21.9 °F 67% 30.14 in 10.0 mi South 15.0 mph 20.7 mph N/A   Clear
7:55 AM 32.7 °F 23.0 °F 22.3 °F 65% 30.14 in 10.0 mi South 13.8 mph 21.9 mph N/A   Clear
8:15 AM 34.0 °F 23.8 °F 22.8 °F 64% 30.15 in 10.0 mi SSW 16.1 mph 21.9 mph N/A   Clear
8:35 AM 35.4 °F 26.8 °F 23.2 °F 61% 30.15 in 10.0 mi SSW 12.7 mph 21.9 mph N/A   Clear
8:55 AM 37.0 °F 26.4 °F 23.5 °F 58% 30.15 in 10.0 mi SSW 20.7 mph 26.5 mph N/A   Clear
9:15 AM 38.5 °F 29.2 °F 24.1 °F 56% 30.15 in 10.0 mi SSW 17.3 mph 23.0 mph N/A   Clear
9:35 AM 39.7 °F 31.2 °F 24.3 °F 54% 30.15 in 10.0 mi SSW 16.1 mph 24.2 mph N/A   Clear
9:55 AM 40.6 °F 31.4 °F 24.8 °F 53% 30.14 in 10.0 mi SSW 19.6 mph 25.3 mph N/A   Clear
10:15 AM 41.5 °F 32.1 °F 24.8 °F 51% 30.14 in 10.0 mi SSW 21.9 mph - N/A   Clear
10:35 AM 42.6 °F 34.0 °F 25.3 °F 51% 30.13 in 10.0 mi SSW 19.6 mph 24.2 mph N/A   Clear
10:55 AM 43.7 °F 35.2 °F 25.7 °F 49% 30.12 in 10.0 mi SW 20.7 mph 27.6 mph N/A   Clear
11:15 AM 44.8 °F 36.9 °F 26.6 °F 49% 30.10 in 10.0 mi SSW 19.6 mph 26.5 mph N/A   Clear
11:35 AM 46.4 °F 39.5 °F 26.8 °F 46% 30.08 in 10.0 mi SSW 17.3 mph 21.9 mph N/A   Clear
11:55 AM 47.7 °F - 26.4 °F 44% 30.08 in 10.0 mi SSW 18.4 mph 26.5 mph N/A   Clear
12:15 PM 48.6 °F - 26.6 °F 42% 30.06 in 10.0 mi SSW 23.0 mph 28.8 mph N/A   Clear
12:35 PM 49.3 °F - 26.8 °F 42% 30.05 in 10.0 mi SSW 19.6 mph 27.6 mph N/A   Clear
12:55 PM 49.5 °F - 27.0 °F 42% 30.04 in 10.0 mi SSW 23.0 mph 28.8 mph N/A   Clear
1:15 PM 49.6 °F - 27.1 °F 42% 30.03 in 10.0 mi SSW 20.7 mph 27.6 mph N/A   Clear
1:35 PM 50.0 °F - 26.2 °F 40% 30.02 in 10.0 mi SSW 25.3 mph 31.1 mph N/A   Clear
1:55 PM 49.8 °F - 25.7 °F 39% 30.02 in 10.0 mi SSW 23.0 mph 28.8 mph N/A   Clear
2:15 PM 50.0 °F - 26.8 °F 41% 30.02 in 10.0 mi SSW 20.7 mph 28.8 mph N/A   Clear
2:35 PM 49.1 °F - 26.4 °F 41% 30.01 in 10.0 mi SSW 18.4 mph 25.3 mph N/A   Clear
2:55 PM 49.3 °F - 26.6 °F 41% 30.00 in 10.0 mi South 17.3 mph 24.2 mph N/A   Clear
3:15 PM 49.1 °F - 27.5 °F 43% 30.00 in 10.0 mi South 13.8 mph 24.2 mph N/A   Clear
3:35 PM 49.1 °F - 27.7 °F 44% 30.00 in 10.0 mi South 13.8 mph - N/A   Clear
3:55 PM 48.2 °F - 27.0 °F 44% 30.01 in 10.0 mi SSW 13.8 mph 21.9 mph N/A   Clear
4:15 PM 46.9 °F - 27.0 °F 46% 30.02 in 10.0 mi SSW 13.8 mph - N/A   Clear
4:35 PM 46.4 °F 39.8 °F 26.2 °F 45% 30.03 in 10.0 mi SSW 16.1 mph 21.9 mph N/A   Clear
4:55 PM 44.6 °F 38.8 °F 26.6 °F 49% 30.02 in 10.0 mi SSW 11.5 mph - N/A   Clear
5:15 PM 44.4 °F 38.6 °F 26.4 °F 49% 30.02 in 10.0 mi South 11.5 mph - N/A   Clear
5:35 PM 42.6 °F 36.3 °F 27.3 °F 55% 30.02 in 10.0 mi South 11.5 mph - N/A   Clear
5:55 PM 42.3 °F 34.4 °F 27.1 °F 55% 30.01 in 10.0 mi South 16.1 mph - N/A   Clear
6:15 PM 41.7 °F 34.4 °F 26.8 °F 55% 30.01 in 10.0 mi South 13.8 mph - N/A   Clear
6:35 PM 39.2 °F 33.0 °F 26.6 °F 61% 30.02 in 10.0 mi South 9.2 mph - N/A   Clear
6:55 PM 38.5 °F 31.1 °F 27.1 °F 64% 30.02 in 10.0 mi South 11.5 mph - N/A   Clear
7:15 PM 39.2 °F 31.6 °F 27.0 °F 62% 30.01 in 10.0 mi South 12.7 mph - N/A   Clear
7:35 PM 38.5 °F 31.1 °F 27.1 °F 64% 30.02 in 10.0 mi South 11.5 mph - N/A   Clear
7:55 PM 38.3 °F 31.4 °F 27.1 °F 64% 30.02 in 10.0 mi South 10.4 mph - N/A   Clear
8:15 PM 38.3 °F 31.9 °F 27.0 °F 64% 30.03 in 10.0 mi SSW 9.2 mph - N/A   Clear
8:35 PM 39.2 °F 32.5 °F 26.6 °F 61% 30.02 in 10.0 mi South 10.4 mph - N/A   Clear
8:55 PM 38.5 °F 31.6 °F 26.6 °F 62% 30.03 in 10.0 mi South 10.4 mph - N/A   Clear
9:15 PM 39.4 °F 32.7 °F 26.2 °F 59% 30.02 in 10.0 mi SSW 10.4 mph - N/A   Clear
9:35 PM 39.4 °F 32.3 °F 26.2 °F 59% 30.03 in 10.0 mi SSW 11.5 mph 16.1 mph N/A   Clear
9:55 PM 39.2 °F 32.0 °F 26.2 °F 60% 30.03 in 10.0 mi South 11.5 mph 18.4 mph N/A   Clear
10:15 PM 38.5 °F 30.7 °F 26.6 °F 62% 30.03 in 10.0 mi South 12.7 mph - N/A   Clear
10:35 PM 38.7 °F 31.4 °F 26.6 °F 62% 30.03 in 10.0 mi SSW 11.5 mph 17.3 mph N/A   Clear
10:55 PM 39.2 °F 30.8 °F 26.8 °F 61% 30.02 in 10.0 mi SSW 15.0 mph - N/A   Clear
11:15 PM 39.6 °F 31.3 °F 27.1 °F 61% 30.02 in 10.0 mi SSW 15.0 mph - N/A   Clear
11:35 PM 39.7 °F 31.2 °F 27.5 °F 62% 30.02 in 10.0 mi SSW 16.1 mph 19.6 mph N/A   Clear
11:55 PM 39.6 °F 31.7 °F 27.9 °F 63% 30.03 in 10.0 mi SSW 13.8 mph 20.7 mph N/A   Clear